Find Starlink 3617

NORAD ID: 51780 Int'l Des: 2022-017 Owner: SPXS Country: US Constellation: starlink operational
LEOCIRCULAR

实时位置

正在加载3D地球...

关于 Starlink 3617

正在加载描述...

即将过境

Passes for default location (London). Set your location on the main map for personalized predictions.

高度历史

Loading altitude history...

两行轨道根数

1 51780U 22017N 26127.26539758 -.00000305 00000-0 -10977-5 0 9995
2 51780 53.2169 76.1527 0001335 88.8532 271.2613 15.08834941231262
Epoch: May 7, 2026 • Age: 25 hours

当前状态

高度 539.7 km
速度 7.59 km/s
星下点 9.76°N, 86.26°W
发射日期 Feb 25, 2022
运行时间 4.1 years
类型 internet

技术详情

分类 Payload
质量 297.00 kg
干质量 275.00 kg
总质量 297.00 kg
长度 0.20 m
直径 2.80 m
跨度 9.00 m
形状 Box + pan
制造商 SPXS
平台类型 Starlink
阶段状态 In Orbit
所有者/国家 SPXS/US

Most Searched